Flag for Germany Weather past 2 weeks in Wismar, Mecklenburg-Western Pomerania, Germany

Now
69 °F

Scattered clouds.


Feels Like: 69 °F
Forecast: 52 / 72 °F
Wind: 5 mph from Northwest

Location: Schwerin

Current Time: Aug 27, 2014 at 5:02:21 PM

Latest Report: Aug 27, 2014 at 4:00 PM


Visibility: 22 mi

Pressure: 29.98 "Hg

Humidity: 42%

Dew point: 45 °F

Location of WismarLocation

Historic Weather in Wismar — Graph

°F

Wismar temperature yesterday

Maximum temperature yesterday: 64 °F (at 4:00 PM)
Minimum temperature yesterday: 44 °F (at 7:00 AM)
Average temperature yesterday: 54 °F

Past Weeks' High & Low Weather Summary

 TemperatureHumidityPressure
High73 °F (Aug 13, 4:00 PM)100% (Aug 26, 6:00 AM)30.00 "Hg (Aug 26, 6:00 AM)
Low44 °F (Aug 26, 7:00 AM)42% (Aug 27, 3:00 PM)29.50 "Hg (Aug 18, 12:00 PM)
Average57 °F77%29.81 "Hg
* Reported Aug 12 3:00 PM — Aug 27 3:00 PM, Wismar, Weather by CustomWeather, © 2014

Note: Actual official high and low records may vary slightly from our data, if they occured in-between our weather recording intervals... More about our weather records

Advertising

Wismar weather history for previous 24 hours

 ConditionsComfort  
Time TempWeatherWind HumidityBarometerVisibility
3:00 PM
Aug 27
69 °FPartly sunny.5 mph42%29.98 "Hg14 mi
2:00 PM67 °FPartly sunny.5 mph44%29.98 "Hg31 mi
1:00 PM65 °FPartly sunny.5 mph46%29.98 "Hg22 mi
9:00 AM57 °FScattered clouds.3 mph88%29.94 "Hg9 mi
8:00 AM54 °FFog.3 mph95%29.92 "Hg4 mi
7:00 AM49 °FFog.2 mph97%29.91 "Hg4 mi
6:00 AM49 °FFog.3 mph98%29.90 "Hg3 mi
4:00 AM49 °FPassing clouds.2 mph96%29.88 "Hg5 mi
3:00 AM50 °FPassing clouds.1 mph96%29.86 "Hg11 mi
2:00 AM51 °FPassing clouds.2 mph93%29.85 "Hg18 mi
1:00 AM50 °FPassing clouds.2 mph97%29.85 "Hg12 mi
12:00 AM52 °FPassing clouds.2 mph94%29.83 "Hg18 mi
10:00 PM
Aug 26
54 °FPassing clouds.1 mph91%29.81 "Hg12 mi
9:00 PM56 °FOvercast.1 mph76%29.80 "Hg31 mi
8:00 PM61 °FScattered clouds.2 mph61%29.79 "Hg31 mi
7:00 PM63 °FPartly sunny.3 mph56%29.78 "Hg31 mi
6:00 PM63 °FPartly sunny.2 mph55%29.77 "Hg31 mi
Weather by CustomWeather, © 2014

See weather overviewHow to use our weather pages